Location: Saint-Hippolyte
(43.6394°N, 4.7559°E)
Time: 14:50:39
(UTC+00:00)

Aureole 3 - Pass Details

Date: 24 October 2020
Orbit: 382 x 1232 km, 82.5° (Epoch: 23 November)

Event Time Altitude Azimuth Distance (km) Brightness Sun altitude
Rises 17:50:56 0° 175° (S) 2,591 6.8 -13.0°
Reaches altitude 10° 17:53:13 10° 170° (S) 1,610 5.6 -13.4°
Maximum altitude 17:56:30 46° 96° (E) 572 3.0 -14.0°
Drops below altitude 10° 17:59:27 10° 21° (NNE) 1,441 5.2 -14.5°
Enters shadow 18:00:06 - 18° (NNE) 1,717 5.6 -14.6°
